Hourly Data Report for September 10, 2006

TORONTO CITY
ONTARIO

43°40'00.000" N
79°24'00.000" W
112.50 m
6158355
71508
XTO

Download Data

Hourly Data (September 2006)
Hourly Data Report for September 10, 2006
TIME
LST
Temp Definition
°C
Dew Point Definition
°C
Rel Hum Definition
%
Precip. Amount Definition
mm

Wind Dir Definition
10's deg

Wind Spd Definition
km/h
Visibility Definition
km
Stn Press Definition
kPa
Hmdx Definition


Wind Chill Definition


Weather Definition


00:00 12.3 8.2 76   LegendMM LegendMM   100.90     LegendNANA
01:00 11.6 7.2 74   LegendMM LegendMM   100.93     LegendNANA
02:00 11.2 7.3 77   LegendMM LegendMM   100.92     LegendNANA
03:00 10.9 6.4 74   LegendMM LegendMM   100.94     LegendNANA
04:00 10.4 5.6 72   LegendMM LegendMM   100.96     LegendNANA
05:00 9.9 5.5 74   LegendMM LegendMM   101.01     LegendNANA
06:00 9.6 5.1 73   LegendMM LegendMM   101.07     LegendNANA
07:00 9.7 5.5 75   LegendMM LegendMM   101.14     LegendNANA
08:00 11.9 6.2 68   LegendMM LegendMM   101.15     LegendNANA
09:00 14.1 5.9 58   LegendMM LegendMM   101.18     LegendNANA
10:00 15.1 4.5 49   LegendMM LegendMM   101.24     LegendNANA
11:00 15.8 3.8 45   LegendMM LegendMM   101.24     LegendNANA
12:00 16.8 4.5 44   LegendMM LegendMM   101.22     LegendNANA
13:00 16.7 5.0 46   LegendMM LegendMM   101.19     LegendNANA
14:00 17.3 5.8 47   LegendMM LegendMM   101.17     LegendNANA
15:00 16.4 6.6 52   LegendMM LegendMM   101.16     LegendNANA
16:00 15.9 7.1 56   LegendMM LegendMM   101.16     LegendNANA
17:00 15.4 7.2 58   LegendMM LegendMM   101.17     LegendNANA
18:00 15.4 7.4 59   LegendMM LegendMM   101.18     LegendNANA
19:00 15.1 7.7 61   LegendMM LegendMM   101.20     LegendNANA
20:00 14.8 8.1 64   LegendMM LegendMM   101.23     LegendNANA
21:00 15.0 8.2 64   LegendMM LegendMM   101.28     LegendNANA
22:00 14.3 8.4 68   LegendMM LegendMM   101.29     LegendNANA
23:00 13.6 8.6 72   LegendMM LegendMM   101.31     LegendNANA

Notes on Data Quality.

Legend

  • E = Estimated
  • M = Missing
  • NA = Not Available*
  • [empty] = Indicates an unobserved value
Date modified: